Location: Newark
(43.6486°N, 79.3853°W)
Time: 05:29:56
(UTC+00:00)

STARLINK-1319 - Pass Details

Date: 07 April 2020
Orbit: 549 x 550 km, 53.0° (Epoch: 01 June)

Event Time Altitude Azimuth Distance (km) Brightness Sun altitude
Exits shadow 08:17:48 19° 331° (NNW) 1,346 5.7 -25.3°
Maximum altitude 08:19:06 22° 358° (N) 1,233 5.7 -25.1°
Drops below altitude 10° 08:22:25 10° 51° (NE) 1,840 7.4 -24.6°
Sets 08:25:04 0° 66° (ENE) 2,735 8.5 -24.3°
